{"data":{"norad_id":59868,"intl_designator":"2024-098L","name":"STARLINK-31921","alt_names":[],"object_type":"PAYLOAD","status":"ACTIVE","operator":null,"country":"US","launch_date":"2024-05-24","launch_site_code":"AFETR","launch_vehicle":null,"mission":null,"orbit_class":"UNKNOWN","rcs_meters":null,"size_class":null,"mass_kg":null,"dimensions":null,"purposes":["comms"],"wikipedia_slug":null,"has_3d_model":false,"image_url":null,"decayed_at":null,"tle_current":{"epoch":"2026-05-25T01:48:51.223104Z","epoch_age_seconds":75494,"freshness":"FRESH","line1":"1 59868U 24098L   26145.07559286 -.00000206  00000+0  20343-5 0  9994","line2":"2 59868  43.0008 166.2526 0001059 269.6711  90.4019 15.27576279113984","mean_motion":15.27576279,"eccentricity":0.0001059,"inclination_deg":43.0008,"raan_deg":166.2526,"arg_perigee_deg":269.6711,"mean_anomaly_deg":90.4019,"bstar":2.0343e-6,"rev_number":11398,"period_min":94.266978336602,"perigee_km":482.33363728738,"apogee_km":483.78683886241,"semimajor_km":6861.1972380749,"source":"CELESTRAK","updated_at":"2026-05-25T13:38:19.092378Z"}}}